Apex, NC

6:07 AM EST on March 01, 2015 (GMT -0500)
Surrey Meadows | Change Station
CLOSE
Current Station
Personal Weather Station
Location: APEX, NC
Elevation: 476 ft
Nearby Weather Stations
Active Advisory: Winter Weather Advisory Active Notice: Local Storm Report

Elev 476 ft 35.73 °N, 78.83 °W | Updated 9 minutes ago

Overcast
Overcast
29.3 °F
Feels Like 29 °F
N
2.2
Wind Variable Wind from East

Today
High -- | Low -- °F
--% Chance of Precip.
Yesterday
High -- | Low -- °F
Precip. -- in
6:45 AM 6:10 PM
Waxing Gibbous, 84% visible
Pressure 30.62 in
Visibility 5.0 miles
Clouds Overcast 2300 ft
Windchill 29 °F
Dew Point 27 °F
Humidity 90%
Rainfall 0.02 in
Snow Depth Not available.
UV 0 out of 12
Pollen 3.10 out of 12
Air Quality Not available.
Flu Activity Not available.
METAR KRDU 011051Z 36004KT 5SM -FZRA BR OVC023 M02/M05 A3061 RMK AO2 FZRAE19B50 SLP369 P0002 T10171050

More Conditions Fewer Conditions

Pressure 30.62 in
Visibility 5.0 miles
Clouds Overcast 2300 ft
Windchill 29 °F
Dew Point 27 °F
Humidity 90%
Rainfall 0.02 in
Snow Depth Not available.
UV 0 out of 12
Pollen 3.10 out of 12
Air Quality Not available.
Flu Activity Not available.
METAR KRDU 011051Z 36004KT 5SM -FZRA BR OVC023 M02/M05 A3061 RMK AO2 FZRAE19B50 SLP369 P0002 T10171050

More Conditions Fewer Conditions

10-Day Weather Forecast

Almanac

Astronomy

Mar. 01, 2015 Rise Set
Actual Time
Civil Twilight
Nautical Twilight
Astronomical Twilight
Moon
Length of Visible Light
Length of Day
Tomorrow will be .
, % of the Moon is Illuminated

Today's Extremes

State Highs State Lows

Community

WunderPhotos

Upload Photos

1,801,359 photos uploaded!

WunderBlogs® & News

Nearby

Air Quality

  Air Quality AQ Index Pollutant
Not available.

Snow Depth

Station Depth Elevation

Earthquake Activity

City Distance Mag. Time & Date
Minimum magnitude displayed is 2.5.

Coastal Water Temperatures

Place Temperature

Nearby Weather Stations

Winter Weather Advisory
Statement as of 4:15 AM EST on March 01, 2015

... Winter Weather Advisory remains in effect until noon EST
today...

* locations... include much of the Piedmont of NC and the northern
coastal plain.

* Hazard types... light freezing rain and freezing drizzle.

* Accumulations... ice accrual of less than a tenth of an inch.

* Timing... through this morning.

* Impacts... a thin coating of ice on roads and sidewalks will make
travel and walking treacherous this morning.

* Temperatures... in the lower 30s.

Precautionary/preparedness actions...

This Winter Weather Advisory means that periods of freezing rain
or freezing drizzle will cause travel difficulties. Be prepared
for slippery roads... and use extra caution while driving.